DEAGJ EDDC-EDAR

Flight info

Callsign DEAGJ
Flight time 0h -4m
Altitude
Route
Aircraft C152

Departure

Time 2026-04-27 16:35
Airport Dresden Airport (EDDC)

Arrival

Time 2026-04-27 16:30
Airport Pirna-Pratzschwitz Airfield (EDAR)
Time Latitude Longitude Altitude Speed Heading
2026-04-27 16:30 51.12677 13.76825 744 ft 0 kts 219°
2026-04-27 16:31 51.12637 13.76771 745 ft 13 kts 220°
2026-04-27 16:31 51.12770 13.76552 744 ft 20 kts 309°
2026-04-27 16:32 51.12722 13.76293 742 ft 20 kts 222°
2026-04-27 16:32 51.12627 13.76165 745 ft 15 kts 219°
2026-04-27 16:33 51.12630 13.75961 747 ft 0 kts 311°
2026-04-27 16:33 51.12681 13.75867 747 ft 25 kts 316°
2026-04-27 16:34 51.12862 13.76008 743 ft 54 kts 40°
2026-04-27 16:34 51.13203 13.76528 842 ft 72 kts 49°
2026-04-27 16:34 51.13333 13.77225 1057 ft 68 kts 106°
2026-04-27 16:34 51.12982 13.77680 1225 ft 70 kts 165°
2026-04-27 16:35 51.12508 13.77862 1421 ft 69 kts 171°
2026-04-27 16:35 51.12032 13.77982 1630 ft 68 kts 175°
2026-04-27 16:35 51.11023 13.78178 1881 ft 82 kts 179°
2026-04-27 16:36 51.10427 13.78221 1930 ft 90 kts 179°
2026-04-27 16:36 51.09798 13.78381 1936 ft 99 kts 171°
2026-04-27 16:36 51.09122 13.78536 1973 ft 97 kts 169°
2026-04-27 16:36 51.08469 13.78797 2027 ft 95 kts 163°
2026-04-27 16:37 51.07866 13.79148 2043 ft 90 kts 161°
2026-04-27 16:37 51.07291 13.79478 2070 ft 85 kts 162°
2026-04-27 16:37 51.06754 13.79782 2113 ft 81 kts 162°
2026-04-27 16:37 51.06223 13.80108 2128 ft 83 kts 156°
2026-04-27 16:38 51.05681 13.80485 2130 ft 87 kts 159°
2026-04-27 16:38 51.05105 13.80815 2135 ft 88 kts 162°
2026-04-27 16:38 51.04558 13.81207 2152 ft 87 kts 151°
2026-04-27 16:38 51.04054 13.81756 2149 ft 89 kts 145°
2026-04-27 16:39 51.03577 13.82371 2147 ft 89 kts 141°
2026-04-27 16:39 51.03045 13.82842 2151 ft 88 kts 163°
2026-04-27 16:39 51.02451 13.83020 2162 ft 86 kts 176°
2026-04-27 16:39 51.01848 13.83054 2145 ft 88 kts 182°
2026-04-27 16:40 51.01230 13.83041 2133 ft 87 kts 178°
2026-04-27 16:40 51.00626 13.83171 2113 ft 89 kts 168°
2026-04-27 16:40 51.00144 13.83671 2152 ft 84 kts 120°
2026-04-27 16:40 50.99957 13.84591 2093 ft 91 kts 104°
2026-04-27 16:41 50.99806 13.85567 2034 ft 93 kts 114°
2026-04-27 16:41 50.99509 13.86517 1781 ft 98 kts 119°
2026-04-27 16:41 50.99018 13.87571 1118 ft 114 kts 127°
2026-04-27 16:41 50.98674 13.88555 896 ft 86 kts 121°
2026-04-27 16:42 50.98421 13.89263 724 ft 70 kts 117°
2026-04-27 16:42 50.98208 13.89963 478 ft 70 kts 118°
2026-04-27 16:42 50.98013 13.90535 401 ft 44 kts 122°